Location: Unspecified
(0.0000°N, 0.0000°E)
Time: 11:20:13
(UTC+00:00)

Courier 1B Rocket - Pass Details

Date: 23 November 2019
Orbit: 920 x 1202 km, 28.2° (Epoch: 13 December)

Event Time Altitude Azimuth Distance (km) Brightness Sun altitude
Rises 12:12:56 0° 288° (WNW) 3,577 8.0 68.6°
Reaches altitude 10° 12:17:31 10° 318° (NW) 2,676 7.3 68.3°
Maximum altitude 12:19:52 12° 339° (NNW) 2,557 7.2 68.1°
Drops below altitude 10° 12:22:16 10° 1° (N) 2,735 7.3 67.8°
Sets 12:27:07 0° 31° (NNE) 3,757 7.8 67.3°
